Location: New Town
(33.2710°N, 90.7534°W)
Time: 13:03:45
(UTC+00:00)

Explorer 11/Cluster Stage 4 - Pass Details

Date: 20 May 2021
Orbit: 467 x 1257 km, 28.8° (Epoch: 14 June)

Event Time Altitude Azimuth Distance (km) Brightness Sun altitude
Rises 02:25:28 0° 268° (W) 3,925 11.0 -16.2°
Reaches altitude 10° 02:28:10 10° 265° (W) 3,050 10.2 -16.7°
Maximum altitude 02:35:49 60° 188° (S) 1,398 7.6 -17.9°
Enters shadow 02:40:30 27° 119° (ESE) 2,199 8.2 -18.6°
Drops below altitude 10° 02:43:54 10° 111° (ESE) 3,213 - -19.2°
Sets 02:46:49 0° 108° (ESE) 4,147 - -19.6°
